Location: Unspecified
(0.0000°N, 0.0000°E)
Time: 11:00:51
(UTC+00:00)

Vanguard 2 - Pass Details

Date: 07 October 2022
Orbit: 553 x 2933 km, 32.9° (Epoch: 29 November)

Event Time Altitude Azimuth Distance (km) Brightness Sun altitude
Rises 18:25:58 0° 312° (NW) 6,507 12.9 -9.5°
Reaches altitude 10° 18:30:10 10° 315° (NW) 5,635 12.5 -10.5°
Maximum altitude 18:47:59 67° 35° (NE) 2,992 10.3 -15.0°
Enters shadow 19:01:09 16° 113° (ESE) 4,468 10.9 -18.3°
